Weather observations for the past three days for
Cape May County Airport
| Date | Time (edt) | Wind (mph) | Vis. (mi.) | Weather | Sky Cond. | Temperature (ºF) | Relative Humidity | Wind Chill (°F) | Heat Index (°F) | Pressure | Precipitation (in) | ||||||
|---|---|---|---|---|---|---|---|---|---|---|---|---|---|---|---|---|---|
| Air | Dwpt | 6 hour | altimeter (in) | sea level (mb) | 1 hr | 3 hr | 6 hr | ||||||||||
| Max. | Min. | ||||||||||||||||
| 10 | 09:56 | Calm | 10.00 | Fair | CLR | 69.1 | 55.9 | 63% | 29.95 | 1014.2 | |||||||
| 10 | 08:56 | W 7 | 10.00 | Fair | CLR | 64.9 | 57 | 76% | 29.94 | 1014.0 | |||||||
| 10 | 07:56 | W 6 | 10.00 | Fair | CLR | 64 | 57 | 64 | 51.1 | 78% | 29.91 | 1013.1 | |||||
| 10 | 06:56 | Calm | 10.00 | Fair | CLR | 55.9 | 55 | 97% | 29.9 | 1012.7 | |||||||
| 10 | 05:56 | Calm | 9.00 | Fair | CLR | 54 | 53.1 | 97% | 29.88 | 1011.9 | |||||||
| 10 | 04:56 | S 3 | 10.00 | Fair | CLR | 59 | 55 | 87% | 29.85 | 1011.0 | |||||||
| 10 | 03:56 | SW 7 | 10.00 | Fair | CLR | 62.1 | 55.9 | 80% | 29.84 | 1010.7 | |||||||
| 10 | 02:56 | Calm | 10.00 | Fair | CLR | 55 | 54 | 96% | 29.85 | 1010.9 | |||||||
| 10 | 01:56 | S 5 | 10.00 | Fair | CLR | 53.1 | 52 | 61 | 51.1 | 96% | 29.85 | 1011.2 | |||||
| 10 | 00:56 | Calm | 5.00 | Fog/Mist | CLR | 55 | 54 | 96% | 29.86 | 1011.4 | |||||||
| 09 | 23:56 | Calm | 10.00 | Fair | CLR | 54 | 53.1 | 97% | 29.86 | 1011.2 | |||||||
| 09 | 22:56 | Calm | 10.00 | Fair | CLR | 54 | 53.1 | 97% | 29.85 | 1011.0 | |||||||
| 09 | 21:56 | Calm | 10.00 | Fair | CLR | 55.9 | 55 | 97% | 29.85 | 1011.0 | |||||||
| 09 | 20:56 | Calm | 10.00 | Fair | CLR | 57.9 | 55.9 | 93% | 29.84 | 1010.5 | |||||||
| 09 | 19:56 | SE 3 | 10.00 | Fair | CLR | 61 | 57 | 69.1 | 61 | 87% | 29.83 | 1010.2 | |||||
| 09 | 18:56 | S 8 | 10.00 | Fair | CLR | 64.9 | 57.9 | 78% | 29.81 | 1009.7 | |||||||
| 09 | 17:56 | S 10 | 10.00 | Fair | CLR | 66 | 57.9 | 75% | 29.82 | 1009.9 | |||||||
| 09 | 16:56 | S 15 | 10.00 | Fair | CLR | 66.9 | 57.9 | 73% | 29.81 | 1009.6 | |||||||
| 09 | 15:56 | S 16 G 26 | 10.00 | A Few Clouds | FEW090 | 68 | 57.9 | 70% | 29.84 | 1010.6 | |||||||
| 09 | 14:56 | S 15 G 20 | 10.00 | Overcast | BKN065 OVC085 | 64.9 | 59 | 81% | 29.86 | 1011.2 | |||||||
| 09 | 13:56 | S 17 G 25 | 10.00 | Overcast | FEW042 OVC070 | 64 | 57 | 70 | 62.1 | 78% | 29.87 | 1011.7 | |||||
| 09 | 12:56 | S 18 G 25 | 10.00 | Mostly Cloudy | BKN075 | 64.9 | 55.9 | 73% | 29.89 | 1012.3 | |||||||
| 09 | 11:56 | S 15 G 23 | 10.00 | Fair | CLR | 70 | 57 | 64% | 29.9 | 1012.8 | |||||||
| 09 | 10:56 | S 13 | 10.00 | Fair | CLR | 66 | 55 | 68% | 29.92 | 1013.4 | |||||||
| 09 | 09:56 | S 12 | 10.00 | Fair | CLR | 64.9 | 54 | 68% | 29.92 | 1013.4 | |||||||
| 09 | 08:56 | S 15 G 21 | 10.00 | Fair | CLR | 63 | 53.1 | 70% | 29.93 | 1013.7 | |||||||
| 09 | 07:56 | S 16 G 21 | 10.00 | Fair | CLR | 63 | 52 | 63 | 55.9 | 68% | 29.93 | 1013.7 | |||||
| 09 | 06:56 | S 13 | 10.00 | NULL | NULL | 57.9 | 52 | 81% | 29.93 | 1013.9 | |||||||
| 09 | 05:56 | S 10 | 10.00 | Fair | CLR | 57.9 | 50 | 75% | 29.93 | 1013.7 | |||||||
| 09 | 04:56 | S 13 | 10.00 | Fair | CLR | 57.9 | 48 | 70% | 29.93 | 1013.7 | |||||||
| 09 | 03:56 | S 13 | 10.00 | Fair | CLR | 57.9 | 46.9 | 67% | 29.93 | 1013.8 | |||||||
| 09 | 02:56 | S 10 | 10.00 | Fair | CLR | 57 | 46.9 | 69% | 29.94 | 1013.9 | |||||||
| 09 | 01:56 | S 12 | 10.00 | Fair | CLR | 55.9 | 46 | 59 | 55 | 70% | 29.94 | 1014.2 | |||||
| 09 | 00:56 | S 13 G 18 | 10.00 | Fair | CLR | 55.9 | 46 | 70% | 29.95 | 1014.3 | |||||||
| 08 | 23:56 | S 10 | 10.00 | Fair | CLR | 55.9 | 45 | 67% | 29.96 | 1014.6 | |||||||
| 08 | 22:56 | S 12 | 10.00 | Fair | CLR | 55.9 | 46 | 70% | 29.95 | 1014.4 | |||||||
| 08 | 21:56 | S 13 | 10.00 | Fair | CLR | 57 | 46.9 | 69% | 29.95 | 1014.4 | |||||||
| 08 | 20:56 | S 15 | 10.00 | Fair | CLR | 57.9 | 44.1 | 60% | 29.93 | 1013.8 | |||||||
| 08 | 19:56 | S 12 | 10.00 | Partly Cloudy | SCT110 | 57.9 | 46.9 | 66 | 57.9 | 67% | 29.92 | 1013.4 | |||||
| 08 | 18:56 | S 14 | 10.00 | Fair | CLR | 61 | 45 | 56% | 29.9 | 1012.8 | |||||||
| 08 | 17:56 | S 15 G 24 | 10.00 | Fair | CLR | 62.1 | 44.1 | 52% | 29.9 | 1012.8 | |||||||
| 08 | 16:56 | S 17 | 10.00 | Fair | CLR | 63 | 41 | 45% | 29.91 | 1013.1 | |||||||
| 08 | 15:56 | S 16 G 23 | 10.00 | Fair | CLR | 64 | 37 | 37% | 29.93 | 1013.7 | |||||||
| 08 | 14:56 | S 15 | 10.00 | Fair | CLR | 64 | 37 | 37% | 29.95 | 1014.2 | |||||||
| 08 | 13:56 | S 8 | 10.00 | Fair | CLR | 64.9 | 36 | 66 | 54 | 34% | 29.95 | 1014.3 | |||||
| 08 | 12:56 | SW 9 | 10.00 | Fair | CLR | 64 | 34 | 33% | 29.97 | 1014.9 | |||||||
| 08 | 11:56 | W 7 | 10.00 | Fair | CLR | 61 | 28.9 | 30% | 29.98 | 1015.5 | |||||||
| 08 | 10:56 | W 9 | 10.00 | Fair | CLR | 60.1 | 37.9 | 44% | 30 | 1015.9 | |||||||
| 08 | 09:56 | Vrbl 5 | 10.00 | Fair | CLR | 57 | 37 | 47% | 30 | 1016.0 | |||||||
| 08 | 08:56 | NW 9 | 10.00 | Fair | CLR | 55.9 | 39.9 | 55% | 30 | 1016.0 | |||||||
| 08 | 07:56 | N 9 | 10.00 | Fair | CLR | 54 | 41 | 55 | 52 | 62% | 29.98 | 1015.4 | |||||
| 08 | 06:56 | N 6 | 10.00 | Fair | CLR | 52 | 41 | 66% | 29.96 | 1014.7 | |||||||
| 08 | 05:56 | N 9 | 10.00 | Fair | CLR | 52 | 41 | 66% | 29.93 | 1013.8 | |||||||
| 08 | 04:56 | NW 9 G 16 | 10.00 | Fair | CLR | 54 | 43 | 67% | 29.91 | 1012.9 | |||||||
| 08 | 03:56 | W 10 | 10.00 | A Few Clouds | FEW090 | 55 | 48 | 77% | 29.88 | 1011.9 | |||||||
| 08 | 02:56 | W 9 | 10.00 | Overcast | FEW065 OVC100 | 54 | 48 | 80% | 29.85 | 1011.1 | |||||||
| 08 | 01:56 | W 7 | 10.00 | Overcast | OVC095 | 52 | 46.9 | 54 | 48 | 83% | 29.86 | 1011.2 | |||||
| 08 | 00:56 | W 7 | 10.00 | Fair | CLR | 52 | 46 | 80% | 29.86 | 1011.4 | |||||||
| 07 | 23:56 | W 6 | 10.00 | Fair | CLR | 52 | 46 | 80% | 29.85 | 1011.2 | |||||||
| 07 | 22:56 | SW 6 | 10.00 | Fair | CLR | 51.1 | 46.9 | 86% | 29.86 | 1011.2 | |||||||
| 07 | 21:56 | S 5 | 10.00 | Fair | CLR | 50 | 46 | 86% | 49 | 29.85 | 1010.9 | ||||||
| 07 | 20:56 | SW 8 | 10.00 | Mostly Cloudy | BKN110 | 53.1 | 48.9 | 86% | 29.83 | 1010.4 | |||||||
| 07 | 19:56 | S 7 | 10.00 | Mostly Cloudy | BKN110 | 54 | 46.9 | 57.9 | 54 | 77% | 29.81 | 1009.8 | 0.02 | ||||
| 07 | 18:56 | SW 10 | 10.00 | A Few Clouds | FEW110 | 55 | 48 | 77% | 29.81 | 1009.6 | |||||||
| 07 | 17:56 | S 7 | 10.00 | Overcast | OVC100 | 55 | 48 | 77% | 29.81 | 1009.7 | |||||||
| 07 | 16:56 | S 7 | 10.00 | Overcast | FEW029 OVC095 | 55.9 | 48 | 75% | 29.81 | 1009.7 | 0.02 | ||||||
| 07 | 15:56 | SW 6 | 10.00 | Light Rain | FEW027 SCT070 OVC090 | 55 | 48.9 | 80% | 29.8 | 1009.3 | 0.01 | ||||||
| 07 | 14:56 | W 5 | 10.00 | Light Rain | FEW022 BKN047 OVC080 | 55.9 | 48.9 | 77% | 29.83 | 1010.3 | 0.01 | ||||||
| 07 | 13:56 | W 6 | 10.00 | Overcast | FEW030 OVC075 | 57 | 45 | 59 | 54 | 64% | 29.83 | 1010.5 | |||||
| 07 | 12:56 | W 5 | 10.00 | Overcast | OVC060 | 57.9 | 46.9 | 67% | 29.85 | 1011.2 | |||||||
| 07 | 11:56 | N 6 | 10.00 | Overcast | OVC060 | 57 | 45 | 64% | 29.88 | 1012.0 | |||||||
| 07 | 10:56 | N 10 | 10.00 | Overcast | BKN023 OVC055 | 57.9 | 48 | 70% | 29.89 | 1012.4 | |||||||
| Date | Time (edt) | Wind (mph) | Vis. (mi.) | Weather | Sky Cond. | Air | Dwpt | Max. | Min. | Relative Humidity | Wind Chill (°F) | Heat Index (°F) | altimeter (in) | sea level (mb) | 1 hr | 3 hr | 6 hr |
| 6 hour | |||||||||||||||||
| Temperature (ºF) | Pressure | Precipitation (in) | |||||||||||||||